Alma, MI

10:13 PM EST on January 17, 2018 (GMT -0500)
Gratiot Community

Weather History for KAMN - August, 2013

Change the Weather History Date:

Thursday, August 8, 2013

  Actual Average Record
Temperature  
Mean Temperature 66 °F -  
Max Temperature 76 °F 82 °F 98 °F (2001)
Min Temperature 57 °F 58 °F 43 °F (1989)
Cooling Degree Days 2    
Growing Degree Days 16 (Base 50)    
Moisture  
Dew Point 54 °F    
Average Humidity 69    
Maximum Humidity 94    
Minimum Humidity 37    
Precipitation  
Precipitation 0.00 in - - ()
Sea Level Pressure  
Sea Level Pressure 30.02 in    
Wind  
Wind Speed 5 mph (NNE)    
Max Wind Speed 8 mph    
Max Gust Speed -    
Visibility 10 miles    
Events      
Averages and records for this station are not official NWS values.
T = Trace of Precipitation, MM = Missing Value Source: NWS Daily Summary

Daily Weather History Graph

Daily Weather History Graph

Search for Another Location

Airport or City:

Trip Planner

Search our weather history database for the weather conditions in past years. The results will help you decide how hot, cold, wet, or windy it might be!

Date:

Astronomy

Aug. 08, 2013 Rise Set
Actual Time 6:36 AM EDT 8:51 PM EDT
Civil Twilight 6:04 AM EDT 9:22 PM EDT
Nautical Twilight 5:25 AM EDT 10:01 PM EDT
Astronomical Twilight 4:42 AM EDT 10:44 PM EDT
Moon 8:27 AM EDT (8/8) 9:23 PM EDT (8/8)
Length of Visible Light 15h 17m
Length of Day
14h 14m
Waxing Crescent, 3% of the Moon is Illuminated
Aug 8
Waxing Crescent
Aug 14
First Quarter
Aug 20
Full
Aug 28
Last Quarter
Sep 5
New

Hourly Weather History & Observations

Time (EDT) Temp. Dew Point Humidity Pressure Visibility Wind Dir Wind Speed Gust Speed Precip Events Conditions
12:13 AM 64.9 °F 60.6 °F 86% 29.96 in 10.0 mi North 4.6 mph - N/A   Clear
12:34 AM 64.8 °F 60.4 °F 86% 29.96 in 10.0 mi North 5.8 mph - N/A   Clear
12:53 AM 64.4 °F 60.4 °F 87% 29.96 in 10.0 mi North 5.8 mph - N/A   Clear
1:13 AM 64.2 °F 60.3 °F 87% 29.97 in 10.0 mi North 8.1 mph - N/A   Clear
1:33 AM 63.9 °F 60.1 °F 87% 29.97 in 10.0 mi North 6.9 mph - N/A   Clear
1:53 AM 63.1 °F 59.9 °F 89% 29.98 in 10.0 mi North 5.8 mph - N/A   Clear
2:13 AM 62.8 °F 59.5 °F 89% 29.98 in 10.0 mi North 6.9 mph - N/A   Clear
2:33 AM 62.6 °F 59.0 °F 88% 29.98 in 10.0 mi North 5.8 mph - N/A   Clear
2:53 AM 61.9 °F 58.5 °F 89% 29.99 in 10.0 mi North 5.8 mph - N/A   Clear
3:13 AM 61.5 °F 58.3 °F 89% 29.99 in 10.0 mi North 4.6 mph - N/A   Clear
3:33 AM 60.3 °F 58.1 °F 93% 29.99 in 10.0 mi North 5.8 mph - N/A   Clear
3:53 AM 60.4 °F 58.1 °F 92% 29.99 in 10.0 mi North 5.8 mph - N/A   Clear
4:13 AM 59.5 °F 57.6 °F 93% 29.99 in 10.0 mi North 5.8 mph - N/A   Clear
4:33 AM 58.1 °F 56.5 °F 94% 30.00 in 10.0 mi NNW 5.8 mph - N/A   Clear
4:53 AM 58.3 °F 56.7 °F 94% 30.01 in 10.0 mi NNW 5.8 mph - N/A   Clear
5:13 AM 57.9 °F 56.3 °F 94% 30.01 in 10.0 mi NNW 5.8 mph - N/A   Clear
5:33 AM 58.5 °F 56.7 °F 94% 30.01 in 10.0 mi North 6.9 mph - N/A   Clear
5:53 AM 58.1 °F 56.1 °F 93% 30.01 in 10.0 mi North 6.9 mph - N/A   Clear
6:13 AM 58.1 °F 55.9 °F 93% 30.02 in 10.0 mi NNW 6.9 mph - N/A   Clear
6:34 AM 57.2 °F 55.4 °F 94% 30.03 in 10.0 mi North 4.6 mph - N/A   Clear
6:53 AM 57.0 °F 55.4 °F 94% 30.03 in 10.0 mi North 3.5 mph - N/A   Clear
7:13 AM 57.2 °F 55.4 °F 94% 30.03 in 10.0 mi North 4.6 mph - N/A   Clear
7:33 AM 57.9 °F 55.9 °F 93% 30.03 in 10.0 mi North 5.8 mph - N/A   Scattered Clouds
7:53 AM 58.8 °F 56.1 °F 91% 30.03 in 10.0 mi NNE 3.5 mph - N/A   Clear
8:13 AM 59.9 °F 55.8 °F 86% 30.03 in 10.0 mi NNE 8.1 mph - N/A   Clear
8:33 AM 60.8 °F 55.2 °F 82% 30.04 in 10.0 mi NNE 5.8 mph - N/A   Clear
8:53 AM 61.9 °F 54.7 °F 77% 30.04 in 10.0 mi North 6.9 mph - N/A   Clear
9:11 AM 62.6 °F 54.5 °F 75% 30.04 in 10.0 mi NE 6.9 mph - N/A   Clear
9:33 AM 63.7 °F 55.0 °F 73% 30.05 in 10.0 mi NE 8.1 mph - N/A   Clear
9:53 AM 64.8 °F 55.6 °F 72% 30.05 in 10.0 mi NE 8.1 mph - N/A   Clear
10:13 AM 66.2 °F 55.4 °F 68% 30.05 in 10.0 mi NE 6.9 mph - N/A   Clear
10:33 AM 67.1 °F 54.9 °F 65% 30.06 in 10.0 mi ENE 6.9 mph - N/A   Clear
10:53 AM 67.5 °F 54.5 °F 63% 30.06 in 10.0 mi ENE 8.1 mph - N/A   Clear
11:13 AM 68.0 °F 54.5 °F 62% 30.06 in 10.0 mi NE 5.8 mph - N/A   Clear
11:33 AM 69.1 °F 53.8 °F 58% 30.06 in 10.0 mi NE 6.9 mph - N/A   Clear
11:53 AM 69.8 °F 50.7 °F 51% 30.05 in 10.0 mi NE 8.1 mph - N/A   Clear
12:13 PM 71.1 °F 50.4 °F 48% 30.04 in 10.0 mi NE 5.8 mph - N/A   Clear
12:33 PM 72.1 °F 49.3 °F 44% 30.05 in 10.0 mi NE 5.8 mph - N/A   Clear
12:53 PM 71.8 °F 47.5 °F 42% 30.05 in 10.0 mi NNE 8.1 mph - N/A   Clear
1:13 PM 73.0 °F 48.6 °F 42% 30.05 in 10.0 mi East 8.1 mph - N/A   Clear
1:33 PM 73.4 °F 48.6 °F 41% 30.05 in 10.0 mi NE 4.6 mph - N/A   Clear
1:53 PM 73.4 °F 48.9 °F 42% 30.05 in 10.0 mi ESE 3.5 mph - N/A   Clear
2:13 PM 74.3 °F 48.2 °F 40% 30.04 in 10.0 mi NNE 5.8 mph - N/A   Clear
2:33 PM 75.0 °F 48.2 °F 39% 30.03 in 10.0 mi East 5.8 mph - N/A   Clear
2:54 PM 74.1 °F 48.4 °F 40% 30.03 in 10.0 mi Calm Calm - N/A   Clear
3:13 PM 75.0 °F 47.5 °F 38% 30.02 in 10.0 mi NE 3.5 mph - N/A   Clear
3:33 PM 74.7 °F 47.5 °F 38% 30.03 in 10.0 mi ENE 6.9 mph - N/A   Clear
3:53 PM 75.0 °F 47.3 °F 37% 30.02 in 10.0 mi SE 3.5 mph - N/A   Clear
4:13 PM 75.6 °F 48.4 °F 38% 30.02 in 10.0 mi NE 5.8 mph - N/A   Clear
4:33 PM 75.9 °F 48.7 °F 38% 30.01 in 10.0 mi NE 4.6 mph - N/A   Clear
4:53 PM 75.0 °F 47.7 °F 38% 30.01 in 10.0 mi ENE 3.5 mph - N/A   Clear
5:14 PM 75.9 °F 49.1 °F 39% 30.01 in 10.0 mi East 4.6 mph - N/A   Clear
5:33 PM 75.9 °F 49.5 °F 39% 30.01 in 10.0 mi East 6.9 mph - N/A   Clear
5:54 PM 75.7 °F 49.6 °F 40% 30.00 in 10.0 mi ENE 5.8 mph - N/A   Clear
6:13 PM 76.1 °F 49.8 °F 40% 29.99 in 10.0 mi NNW 4.6 mph - N/A   Clear
6:33 PM 75.4 °F 48.7 °F 39% 29.99 in 10.0 mi ENE 3.5 mph - N/A   Clear
6:53 PM 75.0 °F 50.2 °F 42% 30.00 in 10.0 mi NE 4.6 mph - N/A   Clear
7:14 PM 74.7 °F 50.5 °F 43% 29.99 in 10.0 mi ENE 3.5 mph - N/A   Clear
7:33 PM 73.4 °F 51.4 °F 46% 30.00 in 10.0 mi East 5.8 mph - N/A   Clear
7:54 PM 72.3 °F 51.8 °F 48% 29.99 in 10.0 mi East 4.6 mph - N/A   Clear
8:13 PM 70.9 °F 52.9 °F 53% 30.01 in 10.0 mi Calm Calm - N/A   Clear
8:34 PM 66.9 °F 56.7 °F 70% 30.01 in 10.0 mi Calm Calm - N/A   Clear
8:53 PM 64.8 °F 57.0 °F 76% 30.01 in 10.0 mi Calm Calm - N/A   Clear
9:14 PM 64.6 °F 57.6 °F 78% 30.01 in 10.0 mi Calm Calm - N/A   Clear
9:33 PM 61.3 °F 55.8 °F 82% 30.01 in 10.0 mi Calm Calm - N/A   Clear
9:53 PM 60.3 °F 55.4 °F 84% 30.02 in 10.0 mi Calm Calm - N/A   Clear
10:13 PM 60.1 °F 55.6 °F 85% 30.02 in 10.0 mi Calm Calm - N/A   Clear
10:34 PM 58.6 °F 54.5 °F 86% 30.02 in 10.0 mi Calm Calm - N/A   Clear
10:53 PM 57.6 °F 54.7 °F 90% 30.02 in 10.0 mi Calm Calm - N/A   Clear
11:13 PM 58.1 °F 54.9 °F 89% 30.01 in 10.0 mi Calm Calm - N/A   Clear
11:34 PM 57.7 °F 55.4 °F 92% 30.01 in 10.0 mi Calm Calm - N/A   Clear
11:53 PM 57.6 °F 55.4 °F 92% 30.01 in 10.0 mi Calm Calm - N/A   Clear